Flag for United Kingdom Weather past 2 weeks in Winchester, England, United Kingdom

Now
54 °F

Partly sunny.


Feels Like: 49 °F
Forecast: N/A
Wind: 14 mph from West

Location: Middle Wallop

Current Time: Dec 22, 2014 at 5:29:35 PM

Latest Report: Dec 22, 2014 at 3:50 PM


Visibility: N/A

Pressure: 30.09 "Hg

Humidity: 77%

Dew point: 46 °F

Location of WinchesterLocation

Historic Weather in Winchester — Graph

°F

Winchester temperature yesterday

Maximum temperature yesterday: 52 °F (at 7:50 PM)
Minimum temperature yesterday: 39 °F (at 12:50 AM)
Average temperature yesterday: 47 °F

Past Weeks' High & Low Weather Summary

 TemperatureHumidityPressure
High55 °F (Dec 18, 12:50 PM)100% (Dec 9, 6:50 AM)30.48 "Hg (Dec 9, 6:50 AM)
Low30 °F (Dec 13, 7:50 AM)61% (Dec 8, 1:50 PM)29.30 "Hg (Dec 12, 5:50 AM)
Average44 °F87%29.98 "Hg
* Reported Dec 7 3:50 PM — Dec 22 3:50 PM, Winchester, Weather by CustomWeather, © 2014

Note: Actual official high and low records may vary slightly from our data, if they occured in-between our weather recording intervals... More about our weather records

Advertising

Winchester weather history for previous 24 hours

 ConditionsComfort  
Time TempWeatherWind HumidityBarometerVisibility
3:50 PM
Dec 22
54 °FPartly sunny.14 mph77%30.09 "HgN/A
2:50 PM54 °FPartly sunny.17 mph77%30.09 "HgN/A
1:50 PM54 °FPartly sunny.18 mph82%30.09 "HgN/A
12:50 PM54 °FPartly sunny.17 mph82%30.09 "HgN/A
11:50 AM54 °FPartly sunny.14 mph82%30.12 "HgN/A
10:50 AM54 °FBroken clouds.17 mph77%30.12 "HgN/A
9:50 AM54 °FBroken clouds.18 mph77%30.12 "HgN/A
8:50 AM54 °FPartly sunny.18 mph82%30.12 "HgN/A
7:50 AM55 °FPartly cloudy.22 mph77%30.09 "HgN/A
6:50 AM54 °FPartly cloudy.17 mph94%30.09 "HgN/A
5:50 AM54 °FPartly cloudy.14 mph94%30.09 "HgN/A
4:50 AM54 °FLow clouds.13 mph94%30.12 "HgN/A
3:50 AM54 °FPassing clouds.17 mph94%30.12 "HgN/A
2:50 AM54 °FLow clouds.15 mph94%30.15 "HgN/A
1:50 AM54 °FLow clouds.15 mph94%30.15 "HgN/A
12:50 AM52 °FLow clouds.12 mph94%30.15 "HgN/A
11:50 PM
Dec 21
52 °FPassing clouds.16 mph94%30.18 "HgN/A
10:50 PM52 °FPartly cloudy.17 mph94%30.18 "Hg4 mi
9:50 PM52 °FPassing clouds.14 mph88%30.21 "HgN/A
8:50 PM52 °FPassing clouds.14 mph94%30.24 "HgN/A
7:50 PM52 °FLow clouds.14 mph88%30.24 "HgN/A
6:50 PM50 °FLow clouds.15 mph94%30.24 "HgN/A
5:50 PM50 °FOvercast.10 mph94%30.24 "HgN/A
Weather by CustomWeather, © 2014

See weather overviewHow to use our weather pages